Weather History for KFWN - July, 2013

Change the Weather History Date:

Saturday, July 27, 2013

  Actual Average Record
Temperature  
Mean Temperature 68 °F -  
Max Temperature 82 °F 80 °F 97 °F (1955)
Min Temperature 54 °F 59 °F 44 °F (1977)
Cooling Degree Days 2    
Growing Degree Days 18 (Base 50)    
Moisture  
Dew Point 60 °F    
Average Humidity 75    
Maximum Humidity 100    
Minimum Humidity 54    
Precipitation  
Precipitation 0.00 in - - ()
Sea Level Pressure  
Sea Level Pressure 30.02 in    
Wind  
Wind Speed 2 mph (South)    
Max Wind Speed 8 mph    
Max Gust Speed -    
Visibility 10 miles    
Events      
Averages and records for this station are not official NWS values.
T = Trace of Precipitation, MM = Missing Value Source: NWS Daily Summary

Daily Weather History Graph

Daily Weather History Graph

Search for Another Location

Airport or City:

Trip Planner

Search our weather history database for the weather conditions in past years. The results will help you decide how hot, cold, wet, or windy it might be!

Date:

Astronomy

Jul. 27, 2013 Rise Set
Actual Time 5:49 AM EDT 8:20 PM EDT
Civil Twilight 5:17 AM EDT 8:51 PM EDT
Nautical Twilight 4:38 AM EDT 9:30 PM EDT
Astronomical Twilight 3:54 AM EDT 10:14 PM EDT
Moon 11:01 PM EDT (7/27) 11:31 AM EDT (7/27)
Length of Visible Light 15h 33m
Length of Day
14h 30m
Waning Gibbous, 71% of the Moon is Illuminated
Jul 27
Waning Gibbous
Jul 29
Last Quarter
Aug 6
New
Aug 14
First Quarter
Aug 20
Full

Hourly Weather History & Observations

Time (EDT) Temp. Heat Index Dew Point Humidity Pressure Visibility Wind Dir Wind Speed Gust Speed Precip Events Conditions
12:53 AM 59.0 °F - 57.9 °F 96% 30.05 in 8.0 mi Calm Calm - N/A   Clear
1:53 AM 59.0 °F - 57.0 °F 93% 30.05 in 7.0 mi Calm Calm - N/A   Clear
2:53 AM 57.0 °F - 55.9 °F 96% 30.04 in 10.0 mi Calm Calm - N/A   Clear
3:53 AM 57.0 °F - 55.9 °F 96% 30.04 in 8.0 mi Calm Calm - N/A   Clear
4:53 AM 55.9 °F - 55.0 °F 97% 30.04 in 10.0 mi Calm Calm - N/A   Clear
5:53 AM 54.0 °F - 54.0 °F 100% 30.06 in 8.0 mi Calm Calm - N/A   Clear
6:53 AM 57.0 °F - 55.9 °F 96% 30.06 in 10.0 mi Calm Calm - N/A   Clear
7:53 AM 61.0 °F - 59.0 °F 93% 30.06 in 10.0 mi Calm Calm - N/A   Clear
8:53 AM 68.0 °F - 60.1 °F 76% 30.05 in 10.0 mi SSW 3.5 mph - N/A   Clear
9:53 AM 73.9 °F - 64.0 °F 71% 30.05 in 10.0 mi Variable 3.5 mph - N/A   Clear
10:53 AM 77.0 °F - 62.1 °F 60% 30.05 in 10.0 mi SW 8.1 mph - N/A   Clear
11:53 AM 78.1 °F - 62.1 °F 58% 30.05 in 10.0 mi Variable 5.8 mph - N/A   Scattered Clouds
12:53 PM 79.0 °F - 62.1 °F 56% 30.04 in 10.0 mi SSW 6.9 mph - N/A   Partly Cloudy
1:53 PM 78.1 °F - 61.0 °F 56% 30.02 in 10.0 mi SW 5.8 mph - N/A   Partly Cloudy
2:53 PM 81.0 °F 82.2 °F 63.0 °F 54% 30.00 in 10.0 mi Variable 4.6 mph - N/A   Clear
3:53 PM 80.1 °F 81.2 °F 62.1 °F 54% 29.99 in 10.0 mi Variable 5.8 mph - N/A   Partly Cloudy
4:53 PM 79.0 °F - 63.0 °F 58% 29.97 in 10.0 mi Calm Calm - N/A   Clear
5:53 PM 80.1 °F 81.5 °F 63.0 °F 56% 29.95 in 10.0 mi SE 8.1 mph - N/A   Clear
6:53 PM 78.1 °F - 62.1 °F 58% 29.95 in 10.0 mi SSE 8.1 mph - N/A   Clear
7:53 PM 73.9 °F - 62.1 °F 66% 29.98 in 10.0 mi SSE 5.8 mph - N/A   Clear
8:53 PM 72.0 °F - 60.1 °F 66% 29.99 in 10.0 mi Calm Calm - N/A   Clear
9:53 PM 69.1 °F - 60.1 °F 73% 30.00 in 10.0 mi Calm Calm - N/A   Clear
10:53 PM 66.0 °F - 60.1 °F 81% 29.98 in 10.0 mi Calm Calm - N/A   Clear
11:53 PM 64.9 °F - 61.0 °F 87% 29.96 in 10.0 mi Calm Calm - N/A   Partly Cloudy